Weather Search – Historical Data

Quick picks

Today Yesterday Last 7 days Last 30 days This month Last month Last year (same date) All of last year

Custom search

Database contains data from 2013-07-07 to 2026-09-05.

Saturday September 5, 2026

156 measurements (5-min interval)

Max temperature
17,1 °C
12:55
Min temperature
10,9 °C
07:05
Avg temperature
12,6 °C
Total rainfall
5,6 mm
Max wind gust
4,0 m/s
SSE · 00:45
Avg wind
0,6 m/s
Avg humidity
91 %
Avg pressure
996 hPa
Max UV index
2,8
12:45
Max solar radiation
665 W/m²
12:35
Avg radiation (daytime)
229 W/m²

Charts

Temperature and dew point
Wind and gusts
Wind rose · prevailing: NNE
Rainfall
Humidity
Air pressure
UV and solar radiation

Detailed data

TimeTemp °CDew °C Humid %Wind m/sGust m/s Dir °Rain mmPress. hPa UVSolar W/m²
00:00 12,311,2 931,3 2,745 0,00994,2 0,00
00:05 12,311,2 931,3 2,723 0,00994,2 0,00
00:10 12,311,2 931,3 2,745 0,00994,2 0,00
00:15 12,311,2 930,9 1,845 0,00994,3 0,00
00:20 12,311,2 930,9 1,845 0,00994,3 0,00
00:25 12,311,2 930,9 1,845 0,00994,3 0,00
00:30 12,311,2 930,4 1,345 0,00994,4 0,00
00:35 12,311,2 930,4 1,845 0,00994,4 0,00
00:40 12,411,3 930,4 1,845 0,00994,4 0,00
00:45 12,411,3 931,8 4,0158 0,00994,6 0,00
00:50 12,411,3 931,8 3,1158 0,00994,6 0,00
00:55 12,311,2 931,3 3,1158 0,00994,6 0,00
01:00 12,211,1 931,3 3,6135 0,00994,6 0,00
01:05 12,211,1 931,8 3,1135 0,25994,6 0,00
01:10 12,111,0 930,9 2,2135 0,25994,6 0,00
01:15 12,010,9 930,9 1,8135 0,25994,5 0,00
01:20 11,911,0 940,4 1,3135 0,51994,5 0,00
01:25 11,911,0 940,4 1,8135 0,51994,5 0,00
01:30 11,911,0 940,0 0,0 0,51994,3 0,00
01:35 11,810,9 940,0 0,4 0,25994,3 0,00
01:40 11,810,9 940,4 1,3135 0,25994,3 0,00
01:45 11,810,9 940,0 0,9 0,51994,2 0,00
01:50 11,810,8 940,4 1,3135 0,25994,2 0,00
01:55 11,810,8 940,9 1,8135 0,25994,2 0,00
02:00 11,710,9 950,9 1,8135 0,00994,1 0,00
02:05 11,710,9 950,4 1,8135 0,00994,1 0,00
02:10 11,710,9 950,4 1,8135 0,00994,1 0,00
02:15 11,710,9 950,9 2,290 0,00994,0 0,00
02:20 11,710,9 950,9 3,168 0,25994,0 0,00
02:25 11,710,9 950,9 3,168 0,00994,0 0,00
02:30 11,710,9 950,4 2,268 0,00994,1 0,00
02:35 11,710,9 950,4 1,868 0,00994,1 0,00
02:40 11,610,8 950,9 1,868 0,00994,1 0,00
02:45 11,610,8 950,4 1,368 0,00994,2 0,00
02:50 11,610,8 950,4 1,868 0,00994,2 0,00
02:55 11,610,8 950,4 2,268 0,00994,2 0,00
03:00 11,610,8 950,4 1,368 0,00994,1 0,00
03:05 11,610,6 940,4 2,268 0,00994,1 0,00
03:10 11,610,6 940,4 1,868 0,00994,1 0,00
03:15 11,610,6 940,4 1,868 0,00994,1 0,00
03:20 11,610,7 940,9 3,690 0,00994,1 0,00
03:25 11,610,7 940,9 2,290 0,00994,1 0,00
03:30 11,610,7 941,3 3,690 0,00994,2 0,00
03:35 11,710,7 940,4 2,290 0,25994,2 0,00
03:40 11,710,7 940,9 2,790 0,25994,2 0,00
03:45 11,710,7 940,4 1,390 0,00994,2 0,00
03:50 11,710,7 940,4 2,290 0,25994,2 0,00
03:55 11,610,7 940,9 2,290 0,25994,2 0,00
04:00 11,610,7 940,4 2,790 0,00994,2 0,00
04:05 11,610,6 940,9 2,290 0,00994,2 0,00
04:10 11,610,6 940,9 1,868 0,00994,2 0,00
04:15 11,610,7 941,3 2,245 0,25994,2 0,00
04:20 11,610,7 940,9 2,245 0,00994,2 0,00
04:25 11,610,7 940,9 2,245 0,00994,2 0,00
04:30 11,710,7 940,9 2,245 0,00994,2 0,00
04:35 11,710,7 940,9 2,245 0,00994,2 0,00
04:40 11,710,7 941,3 2,745 0,00994,2 0,00
04:45 11,710,7 940,4 1,845 0,00994,2 0,00
04:50 11,710,7 940,9 1,845 0,25994,2 0,00
04:55 11,710,7 941,3 2,723 0,00994,2 0,00
05:00 11,710,7 941,3 2,723 0,00994,2 0,00
05:05 11,610,7 941,8 2,723 0,00994,2 0,00
05:10 11,610,7 941,3 2,723 0,00994,2 0,00
05:15 11,610,7 941,8 3,645 0,00994,3 0,00
05:20 11,610,7 941,8 3,145 0,00994,3 0,00
05:25 11,610,5 931,3 3,145 0,00994,3 0,00
05:30 11,610,5 930,9 2,70 0,00994,5 0,00
05:35 11,610,5 931,8 3,123 0,00994,5 0,00
05:40 11,610,5 931,8 2,723 0,00994,5 0,00
05:45 11,610,5 931,3 2,723 0,00994,7 0,00
05:50 11,610,5 931,3 2,223 0,00994,7 0,00
05:55 11,510,4 931,3 2,723 0,00994,7 0,00
06:00 11,410,4 931,3 2,20 0,00994,7 0,00
06:05 11,410,4 931,3 2,20 0,00994,7 0,00
06:10 11,410,4 930,9 2,20 0,00994,7 0,00
06:15 11,410,4 931,3 2,223 0,00994,8 0,00
06:20 11,410,1 921,3 2,223 0,00994,8 0,00
06:25 11,410,1 921,3 2,223 0,00994,8 0,00
06:30 11,410,1 920,9 1,823 0,00995,2 0,00
06:35 11,310,1 920,0 0,9 0,00995,2 0,00
06:40 11,410,1 920,0 0,0 0,00995,2 0,00
06:45 11,510,2 920,0 0,0 0,00995,2 0,00
06:50 11,410,1 920,0 0,0 0,00995,2 0,00
06:55 11,210,0 920,0 0,0 0,00995,2 0,00
07:00 11,110,0 930,0 0,0 0,00995,4 0,00
07:05 10,99,8 930,0 0,0 0,00995,4 0,00
07:10 10,99,8 930,0 0,0 0,00995,4 0,04
07:15 11,09,9 930,0 0,0 0,00995,7 0,05
07:20 11,09,9 930,0 0,0 0,00995,7 0,05
07:25 10,910,0 940,0 0,0 0,00995,7 0,07
07:30 10,910,0 940,0 0,0 0,00995,8 0,08
07:35 10,910,0 940,0 0,0 0,00995,8 0,09
07:40 10,910,0 940,0 0,0 0,00995,8 0,011
07:45 10,910,0 940,0 0,0 0,00996,2 0,014
07:50 10,910,2 950,0 0,0 0,00996,2 0,022
07:55 11,010,2 950,0 0,0 0,00996,2 0,031
08:00 11,010,2 950,0 0,0 0,00996,3 0,039
08:05 11,210,4 950,0 0,0 0,00996,3 0,047
08:10 11,210,4 950,0 0,0 0,00996,3 0,054
08:15 11,210,4 950,0 0,0 0,00996,4 0,556
08:20 11,210,5 950,0 0,0 0,00996,4 0,054
08:25 11,310,5 950,0 0,0 0,00996,4 0,155
08:30 11,410,6 950,0 0,0 0,00996,8 0,563
08:35 11,410,7 950,0 0,0 0,00996,8 0,573
08:40 11,610,8 950,0 0,0 0,00996,8 0,680
08:45 11,710,9 950,0 0,0 0,00997,0 0,688
08:50 11,811,1 950,0 0,0 0,00997,0 0,693
08:55 11,811,1 950,0 0,0 0,00997,0 0,693
09:00 11,911,2 950,0 0,0 0,00997,3 0,7153
09:05 12,111,3 950,0 0,0 0,00997,3 0,7175
09:10 12,311,7 960,0 0,0 0,00997,3 0,8272
09:15 12,812,0 950,0 0,0 0,00997,4 0,9285
09:20 12,711,7 940,0 0,9 0,00997,4 0,9280
09:25 12,711,8 940,0 0,9 0,00997,4 1,0310
09:30 12,911,9 940,0 0,9 0,00997,8 1,0275
09:35 12,912,2 950,0 0,0 0,00997,8 0,9191
09:40 13,312,3 940,0 0,0 0,00997,8 1,0216
09:45 13,612,6 940,4 1,30 0,00998,1 1,0218
09:50 13,812,5 920,4 1,30 0,00998,1 1,1274
09:55 14,012,7 920,4 1,80 0,00998,1 1,2364
10:00 14,713,0 900,0 1,8 0,00998,3 1,2397
10:05 14,813,2 900,0 1,3 0,00998,3 1,3403
10:10 14,912,9 880,4 1,8293 0,00998,3 1,4413
10:15 15,212,8 860,4 1,8293 0,00998,5 1,3339
10:20 15,212,7 850,0 0,9 0,00998,5 1,3245
10:25 15,112,6 850,4 1,8293 0,00998,5 1,3154
10:30 15,412,7 840,0 0,9 0,00998,8 1,5356
10:35 15,912,4 800,9 2,2293 0,00998,8 1,5362
10:40 15,812,3 800,4 2,7293 0,00998,8 1,4268
10:45 15,712,6 820,4 1,8293 0,00998,9 1,5364
10:50 15,912,5 800,4 1,3293 0,00998,9 1,5495
10:55 16,212,8 800,4 2,7293 0,00998,9 1,2267
11:00 16,112,8 810,4 1,8315 0,00999,1 1,1147
11:05 15,712,5 810,4 2,2315 0,00999,1 1,2137
11:10 15,111,9 810,9 2,2293 0,00999,1 1,3131
11:15 15,112,1 820,4 1,8293 0,00999,4 1,3125
11:20 14,812,0 830,4 1,8293 0,00999,4 1,4117
11:25 14,612,1 850,4 1,8293 0,00999,4 1,5134
11:30 14,812,1 840,4 1,8293 0,00999,6 2,1504
11:35 15,512,6 830,4 1,8293 0,00999,6 1,9480
11:40 16,012,5 800,4 1,8293 0,00999,6 2,0504
11:45 16,212,4 780,9 2,2270 0,00999,9 1,5269
11:50 15,912,3 790,9 2,2270 0,00999,9 1,5251
11:55 15,612,2 801,8 4,0248 0,00999,9 1,6252
12:00 15,412,4 821,3 3,6270 0,001 000,3 1,6226
12:05 15,312,5 830,9 3,1270 0,001 000,3 1,6216
12:10 15,312,6 840,9 1,8270 0,001 000,3 1,7229
12:15 15,612,7 830,4 1,8293 0,001 000,4 1,8223
12:20 15,412,8 840,9 2,2270 0,001 000,4 1,8189
12:25 15,212,4 830,4 1,8270 0,001 000,4 1,9263
12:30 15,612,3 810,4 1,3270 0,001 000,8 2,5587
12:35 16,312,4 781,3 4,0270 0,001 000,8 2,5665
12:40 16,412,3 771,3 3,1270 0,001 000,8 2,6544
12:45 16,712,4 760,9 2,7293 0,001 001,0 2,8641
12:50 16,912,5 750,9 2,7293 0,001 001,0 2,6597
12:55 17,112,6 751,3 4,0248 0,001 001,0 2,7604